DW1520 Weather Reports


Display with metric or nautical units.
time (UTC)temp
F
wind
direction
speed
MPH
gust
MPH
rain 1hr
in
rain 24hr
in
rain mn
in
humidity
%
barometer
mb
20260504045506 52 314 0.0 0.0 0.00 0.00 0.00 55 1001.1
20260504045007 52 314 0.0 0.0 0.00 0.00 0.00 55 1001.1
20260504044506 52 314 0.0 0.0 0.00 0.00 0.00 56 1001.1
20260504044006 52 314 0.0 0.0 0.00 0.00 0.00 55 1001.2
20260504043506 52 314 0.0 0.0 0.00 0.00 0.00 54 1001.3
20260504043006 52 314 0.0 0.0 0.00 0.00 0.00 54 1001.3
20260504042506 52 314 0.0 0.0 0.00 0.00 0.00 53 1001.4
20260504042006 52 314 0.0 0.0 0.00 0.00 0.00 52 1001.4
20260504041506 53 314 0.0 0.0 0.00 0.00 0.00 52 1001.6
20260504041007 53 314 0.0 0.0 0.00 0.00 0.00 51 1001.6
20260504040506 53 314 0.0 0.0 0.00 0.00 0.00 51 1001.7
20260504035506 54 314 0.0 0.0 0.00 0.00 0.00 50 1001.8
20260504034507 55 314 0.0 0.0 0.00 0.00 0.00 48 1002.0
20260504034007 55 314 0.0 0.0 0.00 0.00 0.00 47 1002.0
20260504033506 55 314 0.0 0.0 0.00 0.00 0.00 46 1002.0
20260504033006 55 314 0.0 0.0 0.00 0.00 0.00 46 1002.0
20260504032506 55 314 0.0 0.0 0.00 0.00 0.00 45 1002.0
20260504032006 55 314 0.0 0.0 0.00 0.00 0.00 45 1002.1
20260504031507 56 314 0.0 0.0 0.00 0.00 0.00 44 1002.2
20260504030507 56 314 0.0 0.0 0.00 0.00 0.00 44 1002.4
20260504030006 56 314 0.0 0.0 0.00 0.00 0.00 44 1002.5
20260504025506 56 314 0.0 0.0 0.00 0.00 0.00 44 1002.6
20260504025006 56 314 0.0 0.0 0.00 0.00 0.00 44 1002.6
20260504024506 57 314 0.0 0.0 0.00 0.00 0.00 44 1002.6
20260504024006 57 314 0.0 0.0 0.00 0.00 0.00 43 1002.6
20260504023506 58 314 0.0 0.0 0.00 0.00 0.00 42 1002.5
20260504023006 58 314 0.0 0.0 0.00 0.00 0.00 41 1002.5
20260504021507 59 314 0.0 0.0 0.00 0.00 0.00 40 1002.5
20260504021006 59 314 0.0 0.0 0.00 0.00 0.00 39 1002.4
20260504020506 60 314 0.0 0.0 0.00 0.00 0.00 38 1002.4
20260504020006 60 314 0.0 0.0 0.00 0.00 0.00 38 1002.4
20260504015505 60 314 0.0 0.0 0.00 0.00 0.00 38 1002.4
20260504015006 61 314 0.0 0.0 0.00 0.00 0.00 37 1002.4
20260504014506 61 314 0.0 0.0 0.00 0.00 0.00 37 1002.3
20260504014006 62 314 0.0 0.0 0.00 0.00 0.00 37 1002.3
20260504013506 62 314 0.0 0.0 0.00 0.00 0.00 36 1002.2
20260504013007 63 314 0.0 0.0 0.00 0.00 0.00 36 1002.3
20260504012006 63 314 0.0 0.0 0.00 0.00 0.00 34 1002.2
20260504011506 64 314 0.0 1.0 0.00 0.00 0.00 34 1002.3
20260504011006 64 314 0.0 0.0 0.00 0.00 0.00 34 1002.3
20260504010506 64 314 0.0 1.0 0.00 0.00 0.00 33 1002.2
20260504005506 65 314 1.0 3.0 0.00 0.00 0.00 33 1002.3
20260504005007 66 314 0.0 1.0 0.00 0.00 0.00 34 1002.2
20260504003506 66 314 1.0 3.0 0.00 0.00 0.00 31 1002.3
20260504003008 67 314 1.0 3.0 0.00 0.00 0.00 31 1002.3
20260504002506 67 314 1.0 3.0 0.00 0.00 0.00 30 1002.4
20260504001506 67 290 1.0 3.0 0.00 0.00 0.00 30 1002.5
20260504001006 67 296 2.0 6.0 0.00 0.00 0.00 31 1002.4
20260504000506 68 253 1.0 3.0 0.00 0.00 0.00 29 1002.4
20260504000006 68 311 2.0 5.0 0.00 0.00 0.00 30 1002.4
20260503235506 68 292 3.0 9.0 0.00 0.00 0.00 30 1002.4
20260503234506 68 284 2.0 8.0 0.00 0.00 0.00 30 1002.4
20260503233506 69 307 2.0 6.0 0.00 0.00 0.00 31 1002.5
20260503233006 69 312 3.0 8.0 0.00 0.00 0.00 32 1002.6
20260503232506 69 292 3.0 7.0 0.00 0.00 0.00 30 1002.5
20260503232006 69 295 3.0 7.0 0.00 0.00 0.00 29 1002.5
20260503231506 69 201 3.0 8.0 0.00 0.00 0.00 29 1002.6
20260503231006 69 299 2.0 7.0 0.00 0.00 0.00 29 1002.6
20260503230006 69 306 2.0 8.0 0.00 0.00 0.00 28 1002.6
20260503225506 69 291 3.0 10.0 0.00 0.00 0.00 28 1002.6
20260503225006 69 305 3.0 9.0 0.00 0.00 0.00 27 1002.6
20260503224506 69 279 3.0 9.0 0.00 0.00 0.00 27 1002.5
20260503224006 69 288 3.0 9.0 0.00 0.00 0.00 29 1002.5
20260503223506 70 254 2.0 10.0 0.00 0.00 0.00 30 1002.5
20260503223006 70 311 3.0 9.0 0.00 0.00 0.00 30 1002.5
20260503222506 70 302 2.0 9.0 0.00 0.00 0.00 32 1002.5
20260503222006 70 300 3.0 8.0 0.00 0.00 0.00 30 1002.5
20260503221506 70 295 2.0 9.0 0.00 0.00 0.00 33 1002.4
20260503221006 70 287 2.0 8.0 0.00 0.00 0.00 33 1002.4
20260503220506 70 229 3.0 9.0 0.00 0.00 0.00 31 1002.4
20260503220006 70 293 2.0 7.0 0.00 0.00 0.00 32 1002.4
20260503214506 70 307 4.0 10.0 0.00 0.00 0.00 30 1002.5
20260503214006 70 323 3.0 8.0 0.00 0.00 0.00 31 1002.5
20260503213506 70 299 5.0 10.0 0.00 0.00 0.00 31 1002.5
20260503213006 70 244 2.0 8.0 0.00 0.00 0.00 34 1002.5
20260503212506 70 243 3.0 7.0 0.00 0.00 0.00 31 1002.5
20260503212006 70 285 3.0 8.0 0.00 0.00 0.00 33 1002.6
20260503211506 70 253 3.0 8.0 0.00 0.00 0.00 32 1002.6
20260503211006 70 295 2.0 9.0 0.00 0.00 0.00 32 1002.6
20260503210506 70 297 3.0 9.0 0.00 0.00 0.00 33 1002.7
20260503210006 70 309 3.0 8.0 0.00 0.00 0.00 32 1002.7
20260503205506 70 296 5.0 10.0 0.00 0.00 0.00 35 1002.8
20260503205006 70 307 6.0 12.0 0.00 0.00 0.00 33 1002.9
20260503204506 70 232 3.0 8.0 0.00 0.00 0.00 33 1002.9
20260503204006 70 277 4.0 9.0 0.00 0.00 0.00 35 1003.0
20260503203006 70 291 2.0 8.0 0.00 0.00 0.00 37 1003.0
20260503202506 70 301 3.0 12.0 0.00 0.00 0.00 37 1003.1
20260503202006 70 238 2.0 8.0 0.00 0.00 0.00 38 1003.0
20260503201506 70 295 5.0 12.0 0.00 0.00 0.00 36 1003.0
20260503201006 70 299 3.0 8.0 0.00 0.00 0.00 36 1003.0
20260503200506 70 291 2.0 8.0 0.00 0.00 0.00 36 1003.0
20260503200006 70 304 1.0 8.0 0.00 0.00 0.00 37 1003.0
20260503195506 70 266 2.0 8.0 0.00 0.00 0.00 34 1003.1
20260503195006 70 295 5.0 10.0 0.00 0.00 0.00 33 1003.2
20260503194506 70 290 4.0 9.0 0.00 0.00 0.00 35 1003.1
20260503194006 70 307 4.0 9.0 0.00 0.00 0.00 34 1003.2
20260503193506 70 292 3.0 8.0 0.00 0.00 0.00 34 1003.3
20260503193006 70 307 2.0 6.0 0.00 0.00 0.00 33 1003.3
20260503191505 70 212 3.0 7.0 0.00 0.00 0.00 35 1003.3
20260503191006 70 293 4.0 9.0 0.00 0.00 0.00 35 1003.3
20260503190506 70 296 3.0 7.0 0.00 0.00 0.00 37 1003.3
20260503190006 70 266 3.0 9.0 0.00 0.00 0.00 36 1003.4
20260503185506 69 250 2.0 8.0 0.00 0.00 0.00 39 1003.3
20260503185006 69 256 3.0 9.0 0.00 0.00 0.00 39 1003.4
20260503184506 69 309 3.0 10.0 0.00 0.00 0.00 37 1003.4
20260503184006 69 306 2.0 7.0 0.00 0.00 0.00 38 1003.5
20260503183506 69 313 2.0 9.0 0.00 0.00 0.00 37 1003.5
20260503183006 69 300 5.0 12.0 0.00 0.00 0.00 38 1003.6
20260503182506 69 251 3.0 8.0 0.00 0.00 0.00 39 1003.5
20260503182006 69 277 3.0 12.0 0.00 0.00 0.00 40 1003.6
20260503181506 68 273 3.0 7.0 0.00 0.00 0.00 40 1003.6
20260503181005 68 296 3.0 9.0 0.00 0.00 0.00 41 1003.7
20260503180506 68 295 2.0 7.0 0.00 0.00 0.00 43 1003.7
20260503180005 68 302 4.0 7.0 0.00 0.00 0.00 40 1003.7
20260503175505 68 311 2.0 7.0 0.00 0.00 0.00 42 1003.7
20260503174505 67 302 4.0 9.0 0.00 0.00 0.00 43 1003.7
20260503174006 67 298 3.0 6.0 0.00 0.00 0.00 41 1003.9
20260503173505 67 302 3.0 10.0 0.00 0.00 0.00 44 1003.9
20260503173006 67 298 3.0 7.0 0.00 0.00 0.00 45 1003.9
20260503172006 67 300 3.0 9.0 0.00 0.00 0.00 44 1003.9
20260503171506 66 288 3.0 6.0 0.00 0.00 0.00 44 1003.9
20260503171006 66 306 2.0 6.0 0.00 0.00 0.00 45 1003.8
20260503170506 66 303 4.0 7.0 0.00 0.00 0.00 44 1003.8
20260503151006 63 223 2.0 7.0 0.00 0.00 0.00 48 1003.6
20260503150506 62 154 1.0 6.0 0.00 0.00 0.00 49 1003.5
20260503131006 55 171 6.0 10.0 0.00 0.00 0.00 52 1003.8
20260503130506 54 175 5.0 10.0 0.00 0.00 0.00 53 1003.7
20260503110506 53 177 7.0 13.0 0.00 0.00 0.00 56 1003.5
20260503090505 55 174 6.0 10.0 0.00 0.00 0.00 50 1005.0
20260503081505 56 174 7.0 13.0 0.00 0.00 0.00 48 1006.4
20260503081006 56 177 6.0 12.0 0.00 0.00 0.00 49 1006.6
20260503072505 55 174 5.0 7.0 0.00 0.00 0.00 50 1007.0
20260503072006 55 177 5.0 10.0 0.00 0.00 0.00 50 1006.8
20260503071506 54 157 5.0 10.0 0.00 0.00 0.00 51 1006.8
20260503071006 54 167 6.0 9.0 0.00 0.00 0.00 51 1006.9
20260503070506 54 174 5.0 10.0 0.00 0.00 0.00 51 1007.0
20260503055006 55 174 3.0 10.0 0.00 0.00 0.00 51 1007.8
20260503053506 55 164 5.0 9.0 0.00 0.00 0.00 50 1008.0
20260503053005 55 180 5.0 9.0 0.00 0.00 0.00 51 1008.2
20260503052505 55 174 5.0 10.0 0.00 0.00 0.00 50 1008.2
20260503052006 55 172 4.0 10.0 0.00 0.00 0.00 51 1008.3